Change the Weather History Date:

Saturday, April 12, 2014

  Actual Average Record
Temperature  
Mean Temperature 49 °F 44 °F  
Max Temperature 65 °F 55 °F 75 °F (2006)
Min Temperature 32 °F 33 °F 25 °F (2004)
Degree Days  
Heating Degree Days 16 21  
Month to date heating degree days 258 277  
Since 1 July heating degree days 6664 6512  
Cooling Degree Days 0 0  
Month to date cooling degree days 0 0  
Year to date cooling degree days 0 0  
Moisture  
Dew Point 33 °F    
Average Humidity 62    
Maximum Humidity 100    
Minimum Humidity 24    
Precipitation  
Precipitation 0.00 in 0.11 in 0.50 in (2013)
Month to date precipitation 0.30 1.47  
Year to date precipitation 8.31 9.61  
Sea Level Pressure  
Sea Level Pressure 30.11 in    
Wind  
Wind Speed 5 mph (WSW)    
Max Wind Speed 18 mph    
Max Gust Speed 27 mph    
Visibility 6 miles    
Events Fog    
T = Trace of Precipitation, MM = Missing Value Source: NWS Daily Summary

Daily Weather History Graph

Daily Weather History Graph

Search for Another Location

Airport or City:

Trip Planner

Search our weather history database for the weather conditions in past years. The results will help you decide how hot, cold, wet, or windy it might be!

Date:

Astronomy

Apr. 12, 2014 Rise Set
Actual Time 6:16 AM EDT 7:31 PM EDT
Civil Twilight 5:47 AM EDT 8:01 PM EDT
Nautical Twilight 5:12 AM EDT 8:36 PM EDT
Astronomical Twilight 4:35 AM EDT 9:13 PM EDT
Moon 5:04 PM EDT (4/12) 4:45 AM EDT (4/12)
Length of Visible Light 14h 14m
Length of Day
13h 15m
Waxing Gibbous, 93% of the Moon is Illuminated
Apr 12
Waxing Gibbous
Apr 15
Full
Apr 22
Last Quarter
Apr 29
New
May 6
First Quarter

Hourly Weather History & Observations

Time (EDT) Temp. Windchill Dew Point Humidity Pressure Visibility Wind Dir Wind Speed Gust Speed Precip Events Conditions
12:49 AM 37.4 °F - 35.6 °F 93% 30.01 in 0.5 mi Calm Calm - N/A Fog Fog
12:54 AM 37.0 °F - 35.1 °F 93% 30.02 in 0.5 mi Calm Calm - N/A Fog Fog
1:34 AM 36.0 °F - 35.1 °F 97% 30.02 in 0.2 mi Calm Calm - N/A Fog Fog
1:51 AM 35.6 °F - 33.8 °F 93% 30.02 in 0.5 mi Calm Calm - N/A Fog Fog
1:54 AM 35.1 °F 32.2 °F 34.0 °F 96% 30.03 in 0.5 mi SSE 3.5 mph - N/A Fog Fog
2:09 AM 34.0 °F - 33.1 °F 96% 30.02 in 0.2 mi Calm Calm - N/A Fog Fog
2:49 AM 33.8 °F - 33.8 °F 100% 30.04 in 0.5 mi Calm Calm - N/A Fog Fog
2:54 AM 34.0 °F - 33.1 °F 96% 30.05 in 0.2 mi Calm Calm - N/A Fog Fog
3:01 AM 34.0 °F - 32.0 °F 92% 30.04 in 0.5 mi Calm Calm - N/A Fog Fog
3:11 AM 35.1 °F - 33.1 °F 92% 30.05 in 1.0 mi Calm Calm - N/A   Overcast
3:20 AM 35.1 °F - 34.0 °F 96% 30.05 in 3.0 mi Calm Calm - N/A   Overcast
3:42 AM 34.0 °F - 33.1 °F 96% 30.06 in 2.0 mi Calm Calm - N/A   Overcast
3:49 AM 35.6 °F - 33.8 °F 93% 30.06 in 1.0 mi Calm Calm - N/A   Mostly Cloudy
3:54 AM 33.1 °F - 33.1 °F 100% 30.07 in 0.8 mi Calm Calm - N/A   Mostly Cloudy
4:33 AM 33.1 °F - 32.0 °F 96% 30.08 in 1.8 mi Calm Calm - N/A   Overcast
4:41 AM 34.0 °F - 33.1 °F 96% 30.08 in 2.0 mi Calm Calm - N/A   Overcast
4:54 AM 34.0 °F - 33.1 °F 96% 30.10 in 7.0 mi Calm Calm - N/A   Overcast
5:01 AM 34.0 °F - 33.1 °F 96% 30.09 in 6.0 mi Calm Calm - N/A   Overcast
5:54 AM 36.0 °F - 35.1 °F 97% 30.12 in 9.0 mi Calm Calm - N/A   Overcast
6:06 AM 37.0 °F - 35.1 °F 93% 30.11 in 9.0 mi Calm Calm - N/A   Overcast
6:54 AM 37.9 °F 35.5 °F 37.0 °F 97% 30.14 in 6.0 mi ENE 3.5 mph - N/A   Overcast
7:51 AM 42.8 °F - 39.2 °F 87% 30.15 in 7.0 mi Calm Calm - N/A   Scattered Clouds
7:52 AM 42.1 °F - 39.9 °F 92% 30.17 in 7.0 mi Calm Calm - N/A   Scattered Clouds
8:54 AM 46.0 °F 44.8 °F 39.0 °F 76% 30.18 in 10.0 mi NNW 3.5 mph - N/A   Partly Cloudy
9:54 AM 50.0 °F - 37.0 °F 61% 30.18 in 10.0 mi South 5.8 mph - N/A   Clear
10:54 AM 53.1 °F - 37.9 °F 57% 30.19 in 10.0 mi WSW 9.2 mph - N/A   Clear
11:54 AM 57.9 °F - 37.9 °F 47% 30.19 in 10.0 mi WNW 11.5 mph 17.3 mph N/A   Clear
12:54 PM 60.1 °F - 35.1 °F 39% 30.16 in 10.0 mi SW 11.5 mph - N/A   Clear
1:54 PM 63.0 °F - 33.1 °F 33% 30.16 in 10.0 mi Variable 6.9 mph 18.4 mph N/A   Partly Cloudy
2:54 PM 63.0 °F - 34.0 °F 34% 30.14 in 10.0 mi WSW 8.1 mph 17.3 mph N/A   Scattered Clouds
3:54 PM 64.9 °F - 27.0 °F 24% 30.13 in 10.0 mi WNW 12.7 mph 19.6 mph N/A   Clear
4:54 PM 64.0 °F - 28.9 °F 27% 30.14 in 10.0 mi NW 12.7 mph 16.1 mph N/A   Clear
5:54 PM 63.0 °F - 28.0 °F 27% 30.15 in 10.0 mi West 8.1 mph - N/A   Clear
6:54 PM 61.0 °F - 25.0 °F 25% 30.15 in 10.0 mi WNW 4.6 mph - N/A   Clear
7:54 PM 55.9 °F - 26.1 °F 32% 30.17 in 10.0 mi Calm Calm - N/A   Clear
8:54 PM 48.0 °F - 30.9 °F 52% 30.19 in 10.0 mi South 3.5 mph - N/A   Clear
9:54 PM 48.0 °F - 30.0 °F 50% 30.19 in 10.0 mi Variable 3.5 mph - N/A   Clear
10:54 PM 46.9 °F - 30.0 °F 52% 30.17 in 10.0 mi Calm Calm - N/A   Clear
11:54 PM 45.0 °F - 30.0 °F 56% 30.17 in 10.0 mi Calm Calm - N/A   Clear